Weather History for Elkins, WV

Change the Weather History Date:

Saturday, March 16, 2013

  Actual Average Record
Temperature  
Mean Temperature 49 °F 40 °F  
Max Temperature 58 °F 52 °F 78 °F (1935)
Min Temperature 39 °F 28 °F 2 °F (1911)
Degree Days  
Heating Degree Days 16 25  
Month to date heating degree days 475 441  
Since 1 July heating degree days 4722 4762  
Cooling Degree Days 0 0  
Month to date cooling degree days 0 0  
Year to date cooling degree days 0 0  
Moisture  
Dew Point 42 °F    
Average Humidity 80    
Maximum Humidity 93    
Minimum Humidity 66    
Precipitation  
Precipitation 0.39 in 0.13 in 0.88 in (1963)
Month to date precipitation 1.29 1.99  
Year to date precipitation 7.90 8.32  
Snow  
Snow 0.00 in - - ()
Month to date snowfall 8.8  
Since 1 September snowfall 67.5  
Snow Depth 0.00 in    
Sea Level Pressure  
Sea Level Pressure 29.78 in    
Wind  
Wind Speed 7 mph (West)    
Max Wind Speed 24 mph    
Max Gust Speed 38 mph    
Visibility 9 miles    
Events Rain    
T = Trace of Precipitation, MM = Missing Value Source: NWS Daily Summary

Daily Weather History Graph

Daily Weather History Graph

Search for Another Location

Airport:

Trip Planner

Search our weather history database for the weather conditions in past years. The results will help you decide how hot, cold, wet, or windy it might be!

Date:

Astronomy

Mar. 16, 2013 Rise Set
Actual Time 7:28 AM EDT 7:27 PM EDT
Civil Twilight 7:02 AM EDT 7:54 PM EDT
Nautical Twilight 6:31 AM EDT 8:25 PM EDT
Astronomical Twilight 5:59 AM EDT 8:56 PM EDT
Moon 10:00 AM EDT (3/16) No Moon Set
Length of Visible Light 12h 52m
Length of Day
11h 58m
Waxing Crescent, 23% of the Moon is Illuminated
Mar 16
Waxing Crescent
Mar 19
First Quarter
Mar 27
Full
Apr 3
Last Quarter
Apr 10
New

Hourly Weather History & Observations

Time (EDT) Temp. Windchill Dew Point Humidity Pressure Visibility Wind Dir Wind Speed Gust Speed Precip Events Conditions
12:51 AM 44.1 °F 39.5 °F 36.0 °F 73% 29.90 in 7.0 mi West 8.1 mph 19.6 mph 0.01 in Rain Light Rain
1:51 AM 44.1 °F 38.6 °F 37.9 °F 79% 29.89 in 8.0 mi WSW 10.4 mph 23.0 mph 0.03 in Rain Rain
2:51 AM 44.1 °F 42.5 °F 37.9 °F 79% 29.85 in 10.0 mi Variable 3.5 mph - 0.02 in   Overcast
3:51 AM 39.2 °F - 37.4 °F 93% 29.79 in 8.0 mi Calm Calm - N/A   Mostly Cloudy
4:51 AM 39.9 °F 37.8 °F 37.9 °F 93% 29.80 in 9.0 mi SSW 3.5 mph - 0.00 in Rain Light Rain
5:51 AM 42.1 °F 39.2 °F 37.9 °F 85% 29.81 in 5.0 mi SSW 4.6 mph - 0.05 in Rain Rain
6:51 AM 41.0 °F 39.0 °F 39.0 °F 93% 29.77 in 10.0 mi SSW 3.5 mph - 0.16 in   Overcast
7:51 AM 41.0 °F - 39.0 °F 93% 29.78 in 10.0 mi Calm Calm - 0.01 in   Overcast
8:51 AM 42.1 °F - 39.9 °F 92% 29.76 in 10.0 mi Calm Calm - N/A   Overcast
9:51 AM 46.0 °F - 41.0 °F 83% 29.73 in 10.0 mi Calm Calm - N/A   Overcast
10:51 AM 54.0 °F - 44.1 °F 69% 29.70 in 10.0 mi SW 15.0 mph - 0.00 in Rain Light Rain
11:51 AM 53.1 °F - 46.9 °F 80% 29.67 in 6.0 mi South 9.2 mph 16.1 mph 0.08 in Rain Light Rain
12:51 PM 55.9 °F - 48.0 °F 75% 29.67 in 10.0 mi SSW 11.5 mph - 0.00 in   Scattered Clouds
1:26 PM 57.2 °F - 46.4 °F 67% 29.66 in 10.0 mi WSW 18.4 mph 28.8 mph N/A   Overcast
1:51 PM 55.9 °F - 46.0 °F 69% 29.68 in 10.0 mi West 15.0 mph 27.6 mph N/A   Overcast
2:51 PM 53.1 °F - 46.0 °F 77% 29.69 in 10.0 mi WSW 13.8 mph 21.9 mph N/A   Overcast
3:51 PM 55.0 °F - 46.9 °F 74% 29.69 in 4.0 mi WSW 11.5 mph 23.0 mph 0.00 in Rain Rain
4:08 PM 55.4 °F - 46.4 °F 72% 29.68 in 10.0 mi West 9.2 mph - 0.04 in   Overcast
4:51 PM 55.0 °F - 46.9 °F 74% 29.71 in 10.0 mi West 6.9 mph 17.3 mph 0.04 in   Overcast
5:49 PM 55.4 °F - 46.4 °F 72% 29.71 in 10.0 mi WNW 10.4 mph - N/A   Overcast
5:51 PM 55.9 °F - 46.0 °F 69% 29.73 in 10.0 mi West 10.4 mph 16.1 mph N/A   Overcast
6:51 PM 55.9 °F - 44.1 °F 64% 29.76 in 10.0 mi West 11.5 mph 21.9 mph N/A   Mostly Cloudy
7:51 PM 53.1 °F - 44.1 °F 71% 29.81 in 10.0 mi WNW 8.1 mph - N/A   Mostly Cloudy
8:11 PM 50.0 °F - 44.6 °F 82% 29.81 in 9.0 mi North 8.1 mph - N/A   Overcast
8:51 PM 48.9 °F - 43.0 °F 80% 29.87 in 8.0 mi North 8.1 mph - N/A   Mostly Cloudy
9:51 PM 48.0 °F - 41.0 °F 77% 29.90 in 9.0 mi WNW 6.9 mph - N/A   Overcast
10:07 PM 48.2 °F - 41.0 °F 76% 29.87 in 9.0 mi WNW 6.9 mph - N/A   Mostly Cloudy
10:18 PM 48.2 °F - 41.0 °F 76% 29.88 in 8.0 mi North 4.6 mph - N/A   Mostly Cloudy
10:51 PM 46.9 °F - 39.9 °F 77% 29.91 in 8.0 mi NW 6.9 mph - N/A   Overcast
11:19 PM 46.4 °F 43.5 °F 39.2 °F 76% 29.89 in 9.0 mi WNW 5.8 mph - N/A   Overcast
11:51 PM 45.0 °F 42.6 °F 39.0 °F 80% 29.92 in 8.0 mi WNW 4.6 mph - N/A   Mostly Cloudy